This demonstration page uses our WeatherBlox Daily Observations layout. Learn more.

Left ArrowRight Arrow

Hourly Observations for June 3, 2019

Temp ( °F °C ) Dew Point ( °F °C ) Humidity (%) Winds ( mph kmh ) Pressure ( in mb ) Visibility ( mi km ) Precip ( " mm )
12:56 am 00:56 Mostly Cloudy 68 20 50 10 53 53 SE 5 7 29.96 1015 10 16 0.00 0.00
1:56 am 01:56 Clear N/A N/A N/A E 5 7 N/A 10 16 0.00 0.00
2:56 am 02:56 Clear N/A N/A N/A SE 6 9 N/A 10 16 0.00 0.00
3:56 am 03:56 Mostly Cloudy 66 19 52 11 60 60 SE 7 11 29.94 1014 10 16 0.00 0.00
4:56 am 04:56 Cloudy 66 19 54 12 64 64 SE 6 9 29.93 1014 10 16 0.00 0.00
5:56 am 05:56 Cloudy 66 19 54 12 64 64 ESE 8 13 29.93 1013 10 16 0.00 0.00
6:56 am 06:56 Cloudy with Light Showers 66 19 54 12 64 64 ESE 7 11 29.94 1014 6 10 0.00 0.00
7:56 am 07:56 Cloudy with Light Showers 63 17 55 13 77 77 WNW 7 11 30.00 1016 6 10 0.00 0.00
8:56 am 08:56 Cloudy with Light Showers 61 16 57 14 88 88 Calm 30.04 1017 6 10 0.00 0.00
8:59 am 08:59 Cloudy with Thunderstorms 61 16 57 14 88 88 NNW 3 6 30.04 1017 5 8 0.00 0.00
9:34 am 09:34 Mostly Cloudy with Rain 59 15 57 14 94 94 NNW 5 7 30.04 1017 4 6 0.00 0.00
9:56 am 09:56 Cloudy with Heavy Rain 59 15 57 14 94 94 Calm 30.05 1018 2 3 0.00 0.00
10:29 am 10:29 Cloudy with Rain 61 16 57 14 88 88 E 12 19 29.99 1016 3 5 0.00 0.00
10:56 am 10:56 Cloudy with Light Rain 61 16 59 15 94 94 E 7 11 29.98 1015 5 8 0.00 0.00
11:19 am 11:19 Cloudy with Light Showers 63 17 59 15 88 88 ESE 5 7 30.00 1016 5 8 0.00 0.00
11:54 am 11:54 Cloudy with Thunderstorms 63 17 59 15 88 88 ESE 3 6 29.99 1016 5 8 0.00 0.00
11:56 am 11:56 Cloudy with Thunderstorms 63 17 59 15 88 88 ESE 5 7 29.99 1016 5 8 0.00 0.00
12:56 pm 12:56 Cloudy with Thunderstorms 61 16 59 15 94 94 SE 13 20 29.98 1015 5 8 0.00 0.00
1:44 pm 13:44 Mostly Cloudy with Rain 61 16 57 14 88 88 SE 18 30 29.97 1015 5 8 0.00 0.00
1:56 pm 13:56 Cloudy with Light Rain 61 16 57 14 88 88 ESE 17 28 29.96 1014 6 10 0.00 0.00
2:33 pm 14:33 Cloudy 63 17 57 14 83 83 Calm 29.96 1015 10 16 0.00 0.00
2:56 pm 14:56 Cloudy 64 18 59 15 83 83 ESE 12 19 29.94 1014 10 16 0.00 0.00
3:56 pm 15:56 Partly Cloudy 70 21 59 15 69 69 ESE 13 20 29.90 1013 10 16 0.00 0.00
4:56 pm 16:56 Mostly Sunny 73 23 57 14 57 57 SE 13 20 29.88 1012 10 16 0.00 0.00
5:56 pm 17:56 Mostly Sunny 73 23 59 15 61 61 SE 15 24 29.86 1011 10 16 0.00 0.00
6:56 pm 18:56 Sunny 73 23 61 16 65 65 SE 13 20 29.84 1011 10 16 0.00 0.00
7:56 pm 19:56 Sunny 73 23 61 16 65 65 ESE 10 17 29.84 1011 10 16 0.00 0.00
8:56 pm 20:56 Partly Cloudy 72 22 59 15 65 65 ESE 10 17 29.84 1011 10 16 0.00 0.00
9:56 pm 21:56 Mostly Cloudy 72 22 59 15 65 65 ESE 10 17 29.85 1011 10 16 0.00 0.00
10:56 pm 22:56 Partly Cloudy 70 21 59 15 69 69 ESE 10 17 29.87 1012 10 16 0.00 0.00
11:56 pm 23:56 Mostly Cloudy 70 21 59 15 69 69 ESE 8 13 29.86 1011 10 16 0.00 0.00

Powered by AerisWeather